Regional Weather Roundup
Issued by NWS

Home | Current Version | Previous Version | Text Only | Print | Product List | Glossary On
Versions: 1 2 3 4 5 6 7 8 9 10 11 12 13 14 15 16 17 18 19 20 21 22 23 24 25 26 27 28 29 30 31 32 33 34 35 36 37 38 39 40 41 42 43 44 45 46 47 48 49 50
000
ASUS46 KSEW 071910
RWRWA

WASHINGTON REGIONAL WEATHER ROUNDUP
NATIONAL WEATHER SERVICE SEATTLE WA
1200 PM PDT TUE JUL 07 2015

NOTE:"FAIR" INDICATES FEW OR NO CLOUDS BELOW 12,000 FEET WITH NO
SIGNIFICANT WEATHER AND/OR OBSTRUCTIONS TO VISIBILITY.

WAZ505-507>509-072000-
SEATTLE, TACOMA, EVERETT, AND VICINITY

CITY           SKY/WX    TMP DP  RH WIND       PRES   REMARKS
EVERETT        SUNNY     64  53  67 W9        30.03F
BOEING FIELD   SUNNY     71  54  54 VRB5      30.02F
RENTON         SUNNY     72  55  55 NW6       30.01F
SEATAC AIRPORT MOSUNNY   69  54  58 VRB5      30.04F
JBLM-MCCHORD   SUNNY     68  55  62 SW6       30.02F
PUYALLUP       FAIR      68  57  68 CALM      30.04F
BREMERTON      SUNNY     72  55  56 SW3       30.04F
JBLM-FT LEWIS  MOSUNNY   69  55  60 VRB2      30.02F
TACOMA NARROWS SUNNY     64  52  64 SE8       30.03F
$$

WAZ001-503-506-510-514-515-072000-
NORTH INTERIOR

CITY           SKY/WX    TMP DP  RH WIND       PRES   REMARKS
BELLINGHAM     SUNNY     65  54  67 S13G18    30.02F
FRIDAY HARBOR  MOSUNNY   64  54  69 SW12G17   30.05S
EASTSOUND      SUNNY     64  54  68 S6        30.01F
PORT ANGELES   SUNNY     61  53  75 VRB7      30.04F
PORT TOWNSEND  CLOUDY    64  57  77 W7        30.03F
NAS WHIDBEY    PTSUNNY   64  55  72 W7        30.08F
ARLINGTON      SUNNY     70  54  56 SW3       30.03F
BURLINGTON     SUNNY     68  55  64 VRB5G14   30.03F
$$

WAZ020-022-039-040-504-511-512-072000-
SOUTHWEST INTERIOR

CITY           SKY/WX    TMP DP  RH WIND       PRES   REMARKS
SHELTON        SUNNY     72  53  51 VRB3      30.00F
OLYMPIA        MOSUNNY   70  53  54 VRB5      30.03F
CHEHALIS       FAIR      70  57  64 CALM      30.03F HAZE
KELSO          SUNNY     70  54  56 W5        30.05F
VANCOUVER      SUNNY     70  55  59 SW7       30.00F
SCAPPOOSE, OR  SUNNY     74  55  51 N3        29.99F
PORTLAND, OR   PTSUNNY   71  57  61 VRB7      30.00F
$$

WAZ021-516-517-072000-
WASHINGTON COAST

CITY           SKY/WX    TMP DP  RH WIND       PRES   REMARKS
FORKS          CLOUDY    65  56  72 S3        30.05S
HOQUIAM        CLOUDY    64  53  67 CALM      30.04F
ASTORIA, OR    CLOUDY    64  56  75 N9        30.03S
$$

WAZ019-023-024-040-518-519-072000-
CASCADE MOUNTAINS AND COLUMBIA GORGE

CITY           SKY/WX    TMP DP  RH WIND       PRES   REMARKS
TROUTDALE, OR  MOSUNNY   74  56  53 W6        29.98F
THE DALLES, OR SUNNY     88  53  30 NW20      29.87F
$$

WAZ026-027-041>044-520-521-072000-
EAST SLOPES

CITY           SKY/WX    TMP DP  RH WIND       PRES   REMARKS
OMAK           MOSUNNY   91  42  18 N13       29.90F HAZE
WENATCHEE      SUNNY     91  40  16 W9        29.87F
ELLENSBURG     SUNNY     93  43  17 SW7       29.91F
YAKIMA         SUNNY     92  45  19 SE7       29.88F
$$

WAZ028-034-035-072000-
COLUMBIA BASIN

CITY           SKY/WX    TMP DP  RH WIND       PRES   REMARKS
EPHRATA        SUNNY     93  46  19 NE8       29.87F
MOSES LAKE     SUNNY     91  46  21 S7        29.87F
PASCO          SUNNY     94  48  20 CALM      29.85F HX  90
HERMISTON, OR  SUNNY     92  51  24 W10       29.86F
$$

WAZ036>038-072000-
NORTHEAST WASHINGTON

CITY           SKY/WX    TMP DP  RH WIND       PRES   REMARKS
SPOKANE GEIGER PTSUNNY   84  50  30 E8G17     29.97S
SPOKANE FELTS  MOSUNNY   87  49  26 E13       29.96F
FAIRCHILD AFB  MOSUNNY   84  48  28 SE13G18   29.97F
COEURDALENE,ID PTSUNNY   84  52  32 NE10G16   29.98F
DEER PARK      MOSUNNY   82  51  34 NE9       29.98F
$$

WAZ029>033-072000-
SOUTHEAST WASHINGTON

CITY           SKY/WX    TMP DP  RH WIND       PRES   REMARKS
PULLMAN        MOSUNNY   84  49  29 W7        29.99F
LEWISTON, ID   SUNNY     91  49  23 CALM      29.90F
WALLA WALLA    SUNNY     91  46  21 SW15      29.90S
PENDLETON, OR  SUNNY     92  44  19 SW10G18   29.91F
$$


USA.gov is the U.S. government's official web portal to all federal, state and local government web resources and services.